Simultaneous Nadir Overpasses (SNOs) Predictions

Prediction of SNOs between GOES-15 and METOP-B Satellite Orbit:

Table of predicted SNOs for the next 14.0 days since TLE Epoch: 9/11/2021
Index Date Time (GOES-15) GOES-15 Lat,Lon METOP-B Lat,Lon Distance(km) Time Diff (sec)
1 09/11/2021 05:52:36 0.26,-128.17 0.90,-125.23 334.84 80
2 09/12/2021 18:08:49 -0.29,-128.09 0.06,-129.80 194.19 80
3 09/13/2021 17:50:48 -0.27,-128.07 -0.99,-124.79 372.96 80
4 09/15/2021 06:07:10 0.29,-128.08 -0.00,-129.40 150.59 80
5 09/16/2021 05:49:10 0.27,-128.05 1.10,-124.40 415.94 80
6 09/17/2021 18:05:21 -0.30,-127.95 -0.09,-128.96 114.17 80
7 09/18/2021 17:47:22 -0.28,-127.93 -1.20,-123.96 452.53 80
8 09/20/2021 06:03:42 0.31,-127.94 0.15,-128.55 70.94 80
9 09/21/2021 05:45:43 0.30,-127.91 1.26,-123.56 495.56 80
10 09/22/2021 18:01:54 -0.32,-127.81 -0.25,-128.12 34.73 80
